Location: Beranovka
(49.9415°N, 12.8435°E)
Time: 21:20:47
(UTC+00:00)

BREEZE-M DEB (TANK) - Pass Details

Date: 10 August 2020
Orbit: 332 x 12043 km, 49.7° (Epoch: 22 September)

Event Time Altitude Azimuth Distance (km) Brightness Sun altitude
Rises 19:12:54 0° 294° (WNW) 5,668 9.6 -6.1°
Reaches altitude 10° 19:18:28 10° 284° (WNW) 3,273 7.4 -6.9°
Maximum altitude 19:23:40 24° 233° (SW) 1,371 4.4 -7.6°
Drops below altitude 10° 19:26:20 10° 175° (S) 1,588 4.1 -7.9°
Enters shadow 19:27:07 - 166° (SSE) 1,853 4.4 -8.0°
